Time_in_sec,gx,gy,gz
1323446134.84453773,-0.02349199,-0.01450396,-0.99961881
1323446134.89366007,-0.02345786,-0.01464613,-0.99961754
1323446134.94450736,-0.02339560,-0.01462602,-0.99961929
1323446135.01356483,-0.02335319,-0.01471745,-0.99961894
1323446135.04452586,-0.02320991,-0.01493899,-0.99961899
1323446135.09373426,-0.02316900,-0.01480600,-0.99962192
1323446135.14552808,-0.02290460,-0.01492130,-0.99962630
1323446135.19367933,-0.02293978,-0.01500156,-0.99962429
1323446135.24172688,-0.02310772,-0.01519763,-0.99961746
1323446135.29367137,-0.02267666,-0.01557689,-0.99962149
1323446135.34157133,-0.02260274,-0.01571849,-0.99962095
1323446135.39249778,-0.02272607,-0.01585974,-0.99961592
1323446135.44554663,-0.02281972,-0.01582559,-0.99961433
1323446135.50449014,-0.02274839,-0.01592497,-0.99961438
1323446135.54556370,-0.02254047,-0.01628661,-0.99961326
1323446135.59250450,-0.02258683,-0.01625574,-0.99961272
1323446135.64160466,-0.02275080,-0.01610356,-0.99961146
1323446135.69253945,-0.02302558,-0.01609421,-0.99960532
1323446135.74501491,-0.02308150,-0.01598066,-0.99960585
1323446135.79251933,-0.02312432,-0.01605194,-0.99960372
1323446135.84449601,-0.02294349,-0.01608649,-0.99960733
1323446135.89451981,-0.02304401,-0.01615296,-0.99960395
1323446135.94450736,-0.02293426,-0.01607597,-0.99960771
1323446135.99353528,-0.02323317,-0.01602459,-0.99960164
1323446136.04463148,-0.02275444,-0.01620596,-0.99960972
1323446136.09445286,-0.02273560,-0.01622260,-0.99960988
1323446136.14449739,-0.02277109,-0.01624009,-0.99960879
1323446136.20051646,-0.02271971,-0.01607426,-0.99961264
1323446136.24149394,-0.02281724,-0.01631398,-0.99960654
1323446136.29431701,-0.02287282,-0.01656635,-0.99960112
1323446136.34450078,-0.02279485,-0.01666954,-0.99960118
1323446136.39248776,-0.02261925,-0.01654739,-0.99960720
1323446136.44451928,-0.02260602,-0.01649518,-0.99960836
1323446136.49253559,-0.02247892,-0.01655463,-0.99961025
1323446136.54454708,-0.02321953,-0.01643269,-0.99959533
1323446136.59452605,-0.02319671,-0.01643066,-0.99959589
1323446136.64464092,-0.02300311,-0.01661110,-0.99959738
1323446136.69251394,-0.02296947,-0.01659532,-0.99959842
1323446136.74569678,-0.02329263,-0.01670236,-0.99958916
1323446136.79254913,-0.02073088,-0.01776318,-0.99962728
1323446136.84453297,-0.02081957,-0.01787934,-0.99962337
1323446136.89262366,-0.02079748,-0.01755922,-0.99962950
1323446136.94566226,-0.02097773,-0.01756518,-0.99962563
1323446136.99357891,-0.02108049,-0.01751135,-0.99962441
1323446137.04155064,-0.01937284,-0.01834504,-0.99964401
1323446137.09249949,-0.01941472,-0.01822798,-0.99964534
1323446137.14194703,-0.01920481,-0.01839642,-0.99964631
1323446137.19364166,-0.01923094,-0.01849092,-0.99964407
1323446137.24204564,-0.01918739,-0.01861197,-0.99964266
1323446137.29365015,-0.01763195,-0.01875202,-0.99966868
1323446137.34450245,-0.01773764,-0.01865248,-0.99966868
1323446137.39250469,-0.01782643,-0.01847163,-0.99967045
1323446137.44464207,-0.01777937,-0.01838628,-0.99967287
1323446137.49390054,-0.01791700,-0.01848112,-0.99966866
1323446137.54557037,-0.02011143,-0.01889302,-0.99961922
1323446137.59361076,-0.02034017,-0.01878664,-0.99961660
1323446137.64188528,-0.02028660,-0.01877318,-0.99961794
1323446137.69266081,-0.02027112,-0.01867089,-0.99962017
1323446137.74554658,-0.02044180,-0.01863247,-0.99961741
1323446137.79249644,-0.02203276,-0.01831312,-0.99958951
1323446137.84567761,-0.02192056,-0.01827260,-0.99959272
1323446137.89374256,-0.02203866,-0.01806327,-0.99959393
1323446137.94451165,-0.02211947,-0.01836741,-0.99958660
1323446137.99364948,-0.02188151,-0.01828550,-0.99959334
1323446138.04451752,-0.02292672,-0.01802249,-0.99957469
1323446138.09353471,-0.02298160,-0.01808102,-0.99957237
1323446138.14461541,-0.02313691,-0.01790840,-0.99957189
1323446138.19252634,-0.02317018,-0.01789994,-0.99957128
1323446138.24529266,-0.02342928,-0.01797259,-0.99956393
1323446138.29363322,-0.02408258,-0.01804724,-0.99954706
1323446138.34452438,-0.02400812,-0.01813271,-0.99954731
1323446138.39255404,-0.02404741,-0.01812193,-0.99954656
1323446138.44162107,-0.02420178,-0.01802539,-0.99954458
1323446138.49265552,-0.02430375,-0.01786169,-0.99954504
1323446138.54557061,-0.02173320,-0.01842025,-0.99959410
1323446138.60464382,-0.02173091,-0.01838623,-0.99959477
1323446138.64162469,-0.02173351,-0.01840353,-0.99959440
1323446138.69351840,-0.02168203,-0.01823387,-0.99959863
1323446138.74550653,-0.02175068,-0.01816585,-0.99959837
1323446138.79361367,-0.01923307,-0.01905457,-0.99963344
1323446138.84449482,-0.01913818,-0.01878641,-0.99964034
1323446138.89353561,-0.01944935,-0.01878487,-0.99963436
1323446138.94559193,-0.01943238,-0.01888703,-0.99963276
1323446138.99250817,-0.01941691,-0.01888387,-0.99963312
1323446139.04452300,-0.01642448,-0.01945235,-0.99967587
1323446139.09352398,-0.01636690,-0.01947926,-0.99967629
1323446139.14564323,-0.01650132,-0.01978949,-0.99966799
1323446139.19256186,-0.01656479,-0.01983380,-0.99966606
1323446139.24234414,-0.01659547,-0.01982156,-0.99966579
1323446139.29353690,-0.01696444,-0.01944152,-0.99966706
1323446139.34155464,-0.01704175,-0.01933298,-0.99966785
1323446139.39253378,-0.01693639,-0.01915061,-0.99967315
1323446139.44491982,-0.01707626,-0.01902321,-0.99967321
1323446139.49355197,-0.01709082,-0.01914539,-0.99967062
1323446139.54224300,-0.01651827,-0.01882468,-0.99968634
1323446139.59254336,-0.01657409,-0.01910832,-0.99968003
1323446139.64452338,-0.01640074,-0.01900696,-0.99968483
1323446139.69364905,-0.01644758,-0.01900458,-0.99968410
1323446139.74151969,-0.01638942,-0.01892434,-0.99968658
1323446139.80050921,-0.01732395,-0.01884588,-0.99967230
1323446139.84155726,-0.01747175,-0.01902458,-0.99966635
1323446139.89422131,-0.01761453,-0.01908892,-0.99966261
1323446139.94452882,-0.01789166,-0.01900987,-0.99965920
1323446139.99365997,-0.01803485,-0.01908229,-0.99965525
1323446140.04759192,-0.02117863,-0.01859829,-0.99960271
1323446140.09262538,-0.02136911,-0.01836125,-0.99960303
1323446140.14207435,-0.02141729,-0.01844854,-0.99960040
1323446140.19265723,-0.02145842,-0.01855782,-0.99959749
1323446140.24155831,-0.02136045,-0.01861738,-0.99959848
1323446140.29403710,-0.02434284,-0.01827912,-0.99953654
1323446140.34451580,-0.02422639,-0.01836472,-0.99953780
1323446140.39351130,-0.02418384,-0.01835360,-0.99953904
1323446140.44496655,-0.02422811,-0.01842522,-0.99953665
1323446140.49363995,-0.02436101,-0.01845385,-0.99953289
1323446140.54155397,-0.02642871,-0.01821126,-0.99948480
1323446140.59253311,-0.02658460,-0.01796399,-0.99948514
1323446140.64491487,-0.02673265,-0.01796974,-0.99948109
1323446140.69378853,-0.02698533,-0.01786991,-0.99947609
1323446140.74463153,-0.02710307,-0.01793003,-0.99947183
1323446140.79263330,-0.02799798,-0.01783688,-0.99944883
1323446140.84450364,-0.02806037,-0.01776361,-0.99944838
1323446140.89366150,-0.02789988,-0.01766705,-0.99945459
1323446140.94180465,-0.02772300,-0.01763891,-0.99946001
1323446141.00151014,-0.02783428,-0.01771384,-0.99945559
1323446141.04450035,-0.02761447,-0.01792510,-0.99945792
1323446141.09365273,-0.02760552,-0.01778037,-0.99946075
1323446141.14451432,-0.02764892,-0.01790150,-0.99945739
1323446141.19248676,-0.02777747,-0.01793659,-0.99945320
1323446141.24164200,-0.02772556,-0.01815571,-0.99945068
1323446141.29272652,-0.02737403,-0.01835195,-0.99945679
1323446141.34453106,-0.02759855,-0.01839987,-0.99944973
1323446141.40451717,-0.02792709,-0.01832179,-0.99944204
1323446141.44559574,-0.02802542,-0.01818098,-0.99944186
1323446141.49363828,-0.02800696,-0.01807559,-0.99944429
1323446141.54152083,-0.02762875,-0.01816051,-0.99945327
1323446141.59364462,-0.02771959,-0.01831141,-0.99944801
1323446141.64163756,-0.02772695,-0.01837437,-0.99944665
1323446141.69362688,-0.02788115,-0.01841552,-0.99944160
1323446141.74153733,-0.02797965,-0.01840821,-0.99943898
1323446141.79657769,-0.02812146,-0.01833110,-0.99943642
1323446141.84152722,-0.02803227,-0.01829590,-0.99943957
1323446141.89350867,-0.02822870,-0.01836553,-0.99943276
1323446141.94155788,-0.02838654,-0.01819731,-0.99943137
1323446141.99350023,-0.02861458,-0.01826333,-0.99942366
1323446142.04449916,-0.02889086,-0.01786122,-0.99942298
1323446142.09359503,-0.02901734,-0.01790487,-0.99941854
1323446142.14454007,-0.02918812,-0.01780963,-0.99941526
1323446142.19250989,-0.02924765,-0.01770820,-0.99941533
1323446142.24565315,-0.02939079,-0.01754271,-0.99941405
1323446142.29435992,-0.02999939,-0.01733531,-0.99939958
1323446142.34566474,-0.02995212,-0.01735838,-0.99940060
1323446142.39364576,-0.03017875,-0.01749512,-0.99939140
1323446142.44451165,-0.03001057,-0.01743408,-0.99939753
1323446142.49364281,-0.03009968,-0.01729112,-0.99939733
1323446142.54564691,-0.03041701,-0.01671773,-0.99939748
1323446142.60052896,-0.03050426,-0.01671665,-0.99939484
1323446142.64156628,-0.03063352,-0.01677920,-0.99938984
1323446142.69420624,-0.03078698,-0.01668491,-0.99938670
1323446142.74564719,-0.03082801,-0.01683546,-0.99938291
1323446142.79364896,-0.03148033,-0.01709660,-0.99935814
1323446142.84850502,-0.03155666,-0.01728976,-0.99935241
1323446142.89365053,-0.03170662,-0.01720393,-0.99934915
1323446142.94565511,-0.03166686,-0.01722059,-0.99935012
1323446142.99270201,-0.03168811,-0.01716340,-0.99935043
1323446143.04565191,-0.03252424,-0.01644850,-0.99933559
1323446143.09408236,-0.03242942,-0.01649530,-0.99933790
1323446143.14206600,-0.03232512,-0.01635839,-0.99934353
1323446143.19262433,-0.03235036,-0.01641848,-0.99934173
1323446143.24451637,-0.03254362,-0.01631884,-0.99933708
1323446143.29251814,-0.03126179,-0.01672805,-0.99937124
1323446143.34153414,-0.03113273,-0.01685260,-0.99937317
1323446143.39253259,-0.03125697,-0.01669977,-0.99937186
1323446143.44167447,-0.03139469,-0.01666956,-0.99936805
1323446143.49394441,-0.03151966,-0.01673426,-0.99936304
1323446143.54451990,-0.03045109,-0.01647830,-0.99940042
1323446143.59365797,-0.03053138,-0.01639843,-0.99939928
1323446143.64193678,-0.03069059,-0.01634968,-0.99939520
1323446143.69364929,-0.03068714,-0.01633156,-0.99939561
1323446143.74450517,-0.03067045,-0.01622841,-0.99939780
1323446143.80554533,-0.02993121,-0.01639036,-0.99941757
1323446143.84094715,-0.02983681,-0.01656092,-0.99941758
1323446143.89378834,-0.02976549,-0.01637110,-0.99942283
1323446143.94524145,-0.02973782,-0.01639835,-0.99942321
1323446143.99353600,-0.02964681,-0.01613890,-0.99943014
1323446144.04168940,-0.02863994,-0.01645833,-0.99945429
1323446144.09250498,-0.02879594,-0.01636284,-0.99945138
1323446144.14453340,-0.02882051,-0.01636159,-0.99945069
1323446144.20456123,-0.02896500,-0.01627388,-0.99944794
1323446144.24568701,-0.02873559,-0.01626648,-0.99945469
1323446144.29366875,-0.02814339,-0.01673051,-0.99946388
1323446144.34553814,-0.02826822,-0.01673482,-0.99946028
1323446144.39362669,-0.02833309,-0.01654022,-0.99946168
1323446144.44152927,-0.02836041,-0.01663593,-0.99945932
1323446144.49315405,-0.02844931,-0.01655503,-0.99945814
1323446144.54550385,-0.02723445,-0.01693892,-0.99948555
1323446144.59252691,-0.02705550,-0.01681615,-0.99949248
1323446144.64556146,-0.02720238,-0.01681614,-0.99948849
1323446144.69353223,-0.02726198,-0.01717278,-0.99948081
1323446144.74149561,-0.02721953,-0.01693564,-0.99948601
1323446144.79357505,-0.02732177,-0.01700551,-0.99948203
1323446144.85066271,-0.02748615,-0.01688658,-0.99947954
1323446144.89253068,-0.02726363,-0.01683635,-0.99948648
1323446144.94556117,-0.02718246,-0.01697167,-0.99948641
1323446144.99261999,-0.02707659,-0.01658337,-0.99949580
1323446145.04154587,-0.02691890,-0.01694691,-0.99949396
1323446145.09380889,-0.02702547,-0.01683353,-0.99949300
1323446145.14451551,-0.02697123,-0.01696392,-0.99949226
1323446145.19356823,-0.02683355,-0.01702996,-0.99949484
1323446145.24451756,-0.02688993,-0.01711762,-0.99949183
1323446145.29353309,-0.02613826,-0.01732717,-0.99950816
1323446145.34564209,-0.02596759,-0.01734624,-0.99951228
1323446145.39250636,-0.02612281,-0.01696314,-0.99951481
1323446145.44563818,-0.02627658,-0.01683657,-0.99951292
1323446145.49423862,-0.02622300,-0.01690627,-0.99951315
1323446145.54165244,-0.02589273,-0.01715652,-0.99951749
1323446145.59265971,-0.02606181,-0.01728163,-0.99951094
1323446145.64158726,-0.02618000,-0.01736147,-0.99950647
1323446145.69365048,-0.02638067,-0.01731481,-0.99950200
1323446145.74156427,-0.02639794,-0.01711946,-0.99950491
1323446145.79275775,-0.02622463,-0.01696201,-0.99951216
1323446145.84552336,-0.02661913,-0.01692996,-0.99950228
1323446145.89411402,-0.02676328,-0.01676961,-0.99950113
1323446145.94452095,-0.02693761,-0.01676276,-0.99949656
1323446145.99293971,-0.02683558,-0.01689939,-0.99949700
1323446146.04457378,-0.02743263,-0.01657088,-0.99948630
1323446146.09251308,-0.02735193,-0.01636718,-0.99949186
1323446146.14548707,-0.02734502,-0.01642112,-0.99949117
1323446146.19250607,-0.02727428,-0.01637945,-0.99949379
1323446146.24552751,-0.02739052,-0.01634134,-0.99949123
1323446146.29401183,-0.02751987,-0.01522066,-0.99950537
1323446146.34150314,-0.02756282,-0.01500914,-0.99950739
1323446146.39251685,-0.02763808,-0.01475618,-0.99950908
1323446146.44447827,-0.02783135,-0.01467375,-0.99950493
1323446146.49352074,-0.02776534,-0.01449228,-0.99950941
1323446146.54551220,-0.02523042,-0.01488430,-0.99957085
1323446146.59256649,-0.02532056,-0.01487668,-0.99956868
1323446146.64450002,-0.02501618,-0.01467509,-0.99957933
1323446146.69380569,-0.02494630,-0.01467473,-0.99958108
1323446146.74159789,-0.02473252,-0.01496637,-0.99958207
1323446146.79249954,-0.02154527,-0.01591386,-0.99964121
1323446146.84182143,-0.02167444,-0.01578529,-0.99964046
1323446146.89383745,-0.02165268,-0.01573996,-0.99964164
1323446146.94553423,-0.02151215,-0.01577736,-0.99964409
1323446146.99368930,-0.02140058,-0.01577741,-0.99964648
1323446147.04854488,-0.01961532,-0.01682235,-0.99966607
1323446147.09370279,-0.01947197,-0.01667756,-0.99967130
1323446147.14451694,-0.01980648,-0.01651123,-0.99966749
1323446147.19358540,-0.01948734,-0.01643877,-0.99967495
1323446147.24156046,-0.01936471,-0.01634241,-0.99967892
1323446147.29353380,-0.01875307,-0.01698040,-0.99967994
1323446147.34153152,-0.01875855,-0.01692099,-0.99968085
1323446147.40053725,-0.01882200,-0.01681563,-0.99968143
1323446147.44554949,-0.01890499,-0.01709545,-0.99967512
1323446147.49356341,-0.01874608,-0.01683467,-0.99968254
1323446147.54454684,-0.01954218,-0.01779571,-0.99965065
1323446147.59355068,-0.01951028,-0.01770892,-0.99965281
1323446147.64154696,-0.01937234,-0.01770118,-0.99965563
1323446147.69354606,-0.01927315,-0.01760471,-0.99965925
1323446147.74555087,-0.01944780,-0.01752140,-0.99965733
1323446147.80051947,-0.01999041,-0.01785994,-0.99964064
1323446147.84153819,-0.01972604,-0.01790198,-0.99964514
1323446147.89392877,-0.01974215,-0.01795319,-0.99964390
1323446147.94448495,-0.01974665,-0.01774059,-0.99964761
1323446147.99358153,-0.02081179,-0.01825110,-0.99961681
1323446148.04455996,-0.02054732,-0.01814551,-0.99962420
1323446148.09354544,-0.02041626,-0.01812736,-0.99962722
1323446148.14229989,-0.02026578,-0.01834121,-0.99962638
1323446148.19254184,-0.02033774,-0.01821826,-0.99962717
1323446148.24229074,-0.02028163,-0.01829856,-0.99962684
1323446148.29428458,-0.02000407,-0.01717697,-0.99965233
1323446148.34152889,-0.01991574,-0.01705060,-0.99965626
1323446148.39365315,-0.01983730,-0.01691840,-0.99966007
1323446148.44150281,-0.02011253,-0.01690761,-0.99965475
1323446148.49365044,-0.01991390,-0.01685226,-0.99965966
1323446148.54563856,-0.02209089,-0.01536903,-0.99963783
1323446148.59261584,-0.02195600,-0.01551948,-0.99963847
1323446148.64115000,-0.02202618,-0.01551665,-0.99963697
1323446148.69413257,-0.02191522,-0.01540422,-0.99964115
1323446148.74563956,-0.02400861,-0.01416824,-0.99961135
1323446148.79363942,-0.02395852,-0.01395864,-0.99961550
1323446148.84213519,-0.02392311,-0.01406190,-0.99961490
1323446148.89262605,-0.02387400,-0.01402429,-0.99961660
1323446148.94151783,-0.02373395,-0.01398059,-0.99962055
1323446148.99290037,-0.02531606,-0.01292938,-0.99959588
1323446149.04152942,-0.02547524,-0.01265904,-0.99959530
1323446149.09400606,-0.02550104,-0.01271705,-0.99959390
1323446149.14110780,-0.02537337,-0.01277554,-0.99959641
1323446149.19263077,-0.02524361,-0.01272685,-0.99960031
1323446149.24100018,-0.02536264,-0.01269117,-0.99959775
1323446149.29362655,-0.02554045,-0.01255388,-0.99959496
1323446149.34566140,-0.02564501,-0.01275041,-0.99958980
1323446149.39349699,-0.02562679,-0.01279762,-0.99958966
1323446149.44566226,-0.02569064,-0.01286761,-0.99958712
1323446149.49357986,-0.02586191,-0.01289707,-0.99958233
1323446149.54552317,-0.02573798,-0.01279496,-0.99958684
1323446149.59365273,-0.02600822,-0.01279561,-0.99957983
1323446149.64849758,-0.02609266,-0.01262830,-0.99957976
1323446149.69365358,-0.02638743,-0.01261180,-0.99957223
1323446149.74157643,-0.02647414,-0.01266447,-0.99956927
1323446149.79250288,-0.02660546,-0.01256031,-0.99956710
1323446149.84561157,-0.02674233,-0.01250229,-0.99956418
1323446149.89371037,-0.02673995,-0.01251271,-0.99956411
1323446149.94153333,-0.02686445,-0.01236222,-0.99956264
1323446149.99263072,-0.02672742,-0.01244680,-0.99956527
1323446150.04171252,-0.02664760,-0.01244228,-0.99956745
1323446150.09263062,-0.02691061,-0.01271793,-0.99955694
1323446150.14072633,-0.02696925,-0.01287523,-0.99955334
1323446150.20553851,-0.02685013,-0.01300281,-0.99955490
1323446150.24074912,-0.02986411,-0.01185357,-0.99948368
1323446150.29359007,-0.02991072,-0.01182756,-0.99948260
1323446150.34073043,-0.02978189,-0.01183751,-0.99948632
1323446150.39265156,-0.02964910,-0.01180996,-0.99949060
1323446150.44453144,-0.02963363,-0.01189099,-0.99949010
1323446150.49364638,-0.02948213,-0.01178948,-0.99949578
1323446150.54557896,-0.03245768,-0.01152706,-0.99940664
1323446150.59252763,-0.03223999,-0.01155939,-0.99941331
1323446150.64531302,-0.03214445,-0.01138874,-0.99941835
1323446150.69431305,-0.03229233,-0.01158468,-0.99941133
1323446150.74453163,-0.03245400,-0.01151181,-0.99940693
1323446150.79357910,-0.03479155,-0.01138703,-0.99932972
1323446150.85265636,-0.03477907,-0.01114062,-0.99933293
1323446150.89258099,-0.03481667,-0.01112607,-0.99933178
1323446150.94531250,-0.03488576,-0.01110065,-0.99932966
1323446150.99251366,-0.03417680,-0.01091393,-0.99935621
1323446151.04156017,-0.03387159,-0.01070349,-0.99936888
1323446151.09380174,-0.03399174,-0.01048213,-0.99936714
1323446151.14448524,-0.03389815,-0.01037142,-0.99937148
1323446151.19350624,-0.03389093,-0.01031569,-0.99937230
1323446151.24228334,-0.03365257,-0.01025988,-0.99938093
1323446151.29249573,-0.03332111,-0.01082467,-0.99938608
1323446151.34550619,-0.03351728,-0.01070225,-0.99938084
1323446151.39253259,-0.03384470,-0.01040257,-0.99937296
1323446151.44451761,-0.03410258,-0.01035271,-0.99936472
1323446151.49357820,-0.03440496,-0.01035558,-0.99935432
1323446151.54549408,-0.03354730,-0.01013318,-0.99938576
1323446151.59250593,-0.03377322,-0.01013601,-0.99937812
1323446151.64215040,-0.03385844,-0.01018916,-0.99937470
1323446151.69251466,-0.03378130,-0.01039961,-0.99937514
1323446151.74150372,-0.03382394,-0.01029513,-0.99937478
1323446151.79251003,-0.03375818,-0.01135851,-0.99936548
1323446151.84155393,-0.03381147,-0.01126124,-0.99936478
1323446151.89354587,-0.03376288,-0.01129903,-0.99936600
1323446151.94151902,-0.03380128,-0.01113287,-0.99936657
1323446151.99355793,-0.03369118,-0.01130201,-0.99936839
1323446152.04453015,-0.03430194,-0.01175106,-0.99934243
1323446152.09364414,-0.03429180,-0.01152078,-0.99934546
1323446152.14451337,-0.03434935,-0.01171242,-0.99934125
1323446152.20154047,-0.03427144,-0.01173623,-0.99934365
1323446152.24552464,-0.03467852,-0.01253261,-0.99931994
1323446152.29360056,-0.03471968,-0.01236740,-0.99932056
1323446152.34563971,-0.03474360,-0.01225041,-0.99932117
1323446152.39255929,-0.03465978,-0.01238550,-0.99932242
1323446152.44189572,-0.03471868,-0.01216649,-0.99932307
1323446152.50165319,-0.03475872,-0.01210761,-0.99932239
1323446152.55389881,-0.03555636,-0.01255227,-0.99928884
1323446152.59255004,-0.03567437,-0.01264464,-0.99928347
1323446152.64451337,-0.03571249,-0.01278357,-0.99928034
1323446152.70448232,-0.03565161,-0.01263083,-0.99928446
